Погода в Камне-на-Оби

Россия / Алтайский край     53°47′29″N   81°21′16″E
темп.,
°C
ветер,
м/с
пор.,
м/с
влажн.,
%
обл.,
%
осадки,
мм/ч
давл.,
гПа
погр.,
м
9 марта, вт
вт901:00−11з6139077 0.8 1020336
04:00−12зюз5128883 0.0 1024378
07:00−15юз5119184 0.0 1026210
10:00−15ююз6129483 0.0 1028325
13:00−11ююз6128665 0.0 1027425
16:00−9юз6118368 0.0 1026453
19:00−11ююз379160 0.0 1024130
22:00−13ю479078 0.0 1024100
10 марта, ср
ср1001:00−15ююз449360 0.0 102274
04:00−15ююз349712 0.0 102141
07:00−15ю339849 0.0 102030
10:00−13ю349795 0.0 1019111
13:00−8ююв359398 0.0 1016250
16:00−4ююв4891100 0.0 1012368
19:00+1ююв71492100 0.0 1008671
22:00+1ю81694100 0.2 1004698
11 марта, чт
чт1101:00+1ююз91698100 2.6 1002648
04:000зюз111984100 0.6 1005882
07:00−10зюз7168868 0.6 1010526
10:00−9юз6139290 0.0 1014438
13:00−8юз7129095 0.0 1016563
16:00−6юз7128593 0.0 1017663
19:00−7ю5128849 0.0 1016317
22:00−5ю8198799 0.0 1013674
12 марта, пт
пт1201:00−4юз9168299 0.3 10121079
04:00−9зюз61480100 0.0 1014722
07:00−14юз5138863 0.0 1016381
10:00−15юз7148818 0.0 1019707
13:00−14зюз7128556 0.0 1020775
16:00−14зюз6108592 0.0 1020729
19:00−16юз379396 0.0 1020186
22:00−20зюз359757 0.0 102177
13 марта, сб
сб1301:00−21зюз349763 0.0 102161
04:00−20зюз3697100 0.1 1021161
07:00−19з4894100 0.3 1024309
10:00−21з499476 0.0 1027302
13:00−20зюз579147 0.0 1029381
16:00−18зюз588830 0.0 1032474
19:00−21юз499227 0.0 1033226
22:00−22ююз511940 0.0 1035226